Location: Val-d'Or
(48.1170°N, 77.7670°W)
Time: 11:12:55
(UTC-04:00)

ISS - Pass Details

Date: 19 May 2018
Orbit: 402 x 407 km, 51.6° (Epoch: 27 May)

Event Time Altitude Azimuth Distance (km) Brightness Sun altitude
Rises 04:15:28 0° 292° (WNW) 2,320 -0.2 -10.2°
Reaches altitude 10° 04:17:33 10° 291° (WNW) 1,458 -1.2 -9.9°
Maximum altitude 04:20:49 76° 206° (SSW) 419 -3.9 -9.5°
Drops below altitude 10° 04:24:04 10° 120° (ESE) 1,453 -0.8 -9.1°
Sets 04:26:09 0° 119° (ESE) 2,310 0.3 -8.9°
